Flag for Canada Weather past 2 weeks in Kingston, Ontario, Canada

Now
81 °F

Scattered clouds.


Feels Like: 85 °F
Forecast: N/A
Wind: 5 mph from Southeast

Location: Kingston

Current Time: Sep 3, 2015 at 6:01:42 PM

Latest Report: Sep 3, 2015 at 5:00 PM


Visibility: 6 mi

Pressure: 29.90 "Hg

Humidity: 79%

Dew point: 73 °F

Location of KingstonLocation

Historic Weather in Kingston — Graph

°F

Kingston temperature yesterday

Maximum temperature yesterday: 75 °F (at 12:00 PM)
Minimum temperature yesterday: 66 °F (at 6:00 AM)
Average temperature yesterday: 72 °F

Past Weeks' High & Low Weather Summary

 TemperatureHumidityPressure
High82 °F (Aug 31, 3:00 PM)100% (Aug 20, 4:45 PM)30.21 "Hg (Aug 20, 4:45 PM)
Low52 °F (Aug 28, 6:00 AM)57% (Aug 21, 3:00 PM)29.77 "Hg (Aug 20, 4:00 PM)
Average70 °F80%30.00 "Hg
* Reported Aug 19 4:00 PM — Sep 3 4:00 PM, Kingston, Weather by CustomWeather, © 2015

Note: Actual official high and low records may vary slightly from our data, if they occured in-between our weather recording intervals... More about our weather records

Advertising

Kingston weather history for previous 24 hours

 ConditionsComfort  
Time TempWeatherWind HumidityBarometerVisibility
4:00 PM
Thu, Sep 3
79 °FBroken clouds.8 mph89%29.91 "Hg8 mi
3:00 PM81 °FFog.7 mph74%29.92 "Hg6 mi
2:00 PM81 °FFog.7 mph79%29.93 "Hg6 mi
1:00 PM81 °FFog.6 mph79%29.93 "Hg6 mi
12:00 PM77 °FFog.8 mph83%29.94 "Hg6 mi
11:00 AM79 °FFog.6 mph79%29.93 "Hg6 mi
10:00 AM77 °FFog.6 mph83%29.93 "Hg5 mi
9:00 AM73 °FFog.7 mph89%29.92 "Hg5 mi
8:00 AM70 °FFog.2 mph100%29.93 "Hg3 mi
7:00 AM68 °FFog.3 mph100%29.91 "Hg2 mi
6:00 AM66 °FFog.2 mph100%29.89 "Hg2 mi
11:00 PM
Wed, Sep 2
72 °FFog.7 mph94%29.92 "Hg5 mi
10:00 PM72 °FFog.8 mph94%29.92 "Hg4 mi
9:00 PM72 °FFog.5 mph100%29.92 "Hg4 mi
8:00 PM72 °FFog.7 mph100%29.90 "Hg3 mi
7:00 PM73 °FFog.8 mph94%29.91 "Hg4 mi
6:00 PM73 °FFog.9 mph94%29.93 "Hg5 mi
Weather by CustomWeather, © 2015

See weather overviewHow to use our weather pages